Corinth, MS

10:55 PM CDT on September 26, 2016 (GMT -0500)
Turner

Weather History for KCRX - September, 2012

Change the Weather History Date:

Tuesday, September 11, 2012

  Actual Average Record
Temperature  
Mean Temperature 68 °F -  
Max Temperature 84 °F 85 °F 98 °F (1936)
Min Temperature 51 °F 61 °F 43 °F (1976)
Cooling Degree Days 2    
Growing Degree Days 18 (Base 50)    
Moisture  
Dew Point 55 °F    
Average Humidity 68    
Maximum Humidity 100    
Minimum Humidity 33    
Precipitation  
Precipitation 0.00 in - - ()
Sea Level Pressure  
Sea Level Pressure 30.16 in    
Wind  
Wind Speed 2 mph (South)    
Max Wind Speed 12 mph    
Max Gust Speed 16 mph    
Visibility 8 miles    
Events Fog , Rain    
Averages and records for this station are not official NWS values.
T = Trace of Precipitation, MM = Missing Value Source: NWS Daily Summary

Daily Weather History Graph

Daily Weather History Graph

Search for Another Location

Airport or City:

Trip Planner

Search our weather history database for the weather conditions in past years. The results will help you decide how hot, cold, wet, or windy it might be!

Date:

Astronomy

Sep. 11, 2012 Rise Set
Actual Time 6:34 AM CDT 7:06 PM CDT
Civil Twilight 6:09 AM CDT 7:31 PM CDT
Nautical Twilight 5:39 AM CDT 8:01 PM CDT
Astronomical Twilight 5:08 AM CDT 8:31 PM CDT
Moon 2:00 AM CDT (9/11) 4:08 PM CDT (9/11)
Length of Visible Light 13h 22m
Length of Day
12h 31m
Waning Crescent, 21% of the Moon is Illuminated
Sep 11
Waning Crescent
Sep 15
New
Sep 22
First Quarter
Sep 29
Full
Oct 8
Last Quarter

Hourly Weather History & Observations

Time (CDT) Temp. Heat Index Dew Point Humidity Pressure Visibility Wind Dir Wind Speed Gust Speed Precip Events Conditions
12:10 AM 57.2 °F - 55.4 °F 94% 30.13 in 10.0 mi WNW 3.5 mph - N/A   Clear
12:30 AM 57.2 °F - 55.4 °F 94% 30.13 in 9.0 mi Calm Calm - N/A   Clear
12:50 AM 57.2 °F - 55.4 °F 94% 30.13 in 8.0 mi Calm Calm - N/A   Clear
1:10 AM 57.2 °F - 55.4 °F 94% 30.12 in 8.0 mi Calm Calm - N/A   Clear
1:30 AM 55.4 °F - 55.4 °F 100% 30.12 in 8.0 mi Calm Calm - N/A   Clear
1:50 AM 55.4 °F - 53.6 °F 94% 30.12 in 10.0 mi Calm Calm - N/A   Clear
2:10 AM 55.4 °F - 53.6 °F 94% 30.12 in 9.0 mi Calm Calm - N/A   Clear
2:30 AM 55.4 °F - 53.6 °F 94% 30.13 in 2.5 mi Calm Calm - N/A   Clear
2:50 AM 55.4 °F - 53.6 °F 94% 30.13 in 0.8 mi Calm Calm - N/A   Mist
3:10 AM 55.4 °F - 53.6 °F 94% 30.12 in 2.5 mi Calm Calm - N/A   Mist
3:30 AM 55.4 °F - 53.6 °F 94% 30.12 in 10.0 mi Calm Calm - N/A   Unknown
3:50 AM 55.4 °F - 53.6 °F 94% 30.12 in 7.0 mi Calm Calm - N/A   Unknown
4:10 AM 53.6 °F - 51.8 °F 94% 30.13 in 1.0 mi Calm Calm - N/A   Mist
4:30 AM 53.6 °F - 53.6 °F 100% 30.13 in 0.5 mi Calm Calm - N/A Fog Fog
4:50 AM 53.6 °F - 51.8 °F 94% 30.14 in 1.5 mi Calm Calm - N/A   Clear
5:10 AM 53.6 °F - 51.8 °F 94% 30.14 in 2.5 mi Calm Calm - N/A   Clear
5:30 AM 53.6 °F - 50.0 °F 88% 30.15 in 0.8 mi Calm Calm - N/A   Mist
5:50 AM 51.8 °F - 50.0 °F 94% 30.16 in 0.8 mi Calm Calm - N/A   Mist
6:10 AM 53.6 °F - 51.8 °F 94% 30.16 in 2.5 mi Calm Calm - N/A   Clear
6:30 AM 51.8 °F - 50.0 °F 94% 30.17 in 0.5 mi Calm Calm - N/A Fog Fog
6:50 AM 51.8 °F - 50.0 °F 94% 30.18 in 0.5 mi Calm Calm - N/A Fog Fog
7:10 AM 53.6 °F - 51.8 °F 94% 30.19 in 5.0 mi Calm Calm - N/A   Clear
7:30 AM 55.4 °F - 53.6 °F 94% 30.20 in 10.0 mi Calm Calm - N/A   Clear
7:50 AM 57.2 °F - 55.4 °F 94% 30.20 in 10.0 mi Calm Calm - N/A   Clear
8:10 AM 60.8 °F - 57.2 °F 88% 30.20 in 10.0 mi Calm Calm - N/A   Clear
8:30 AM 62.6 °F - 57.2 °F 82% 30.20 in 10.0 mi Calm Calm - N/A   Clear
8:50 AM 66.2 °F - 57.2 °F 73% 30.21 in 10.0 mi Calm Calm - N/A   Clear
9:10 AM 68.0 °F - 57.2 °F 68% 30.21 in 10.0 mi SSE 4.6 mph - N/A   Clear
9:30 AM 71.6 °F - 57.2 °F 60% 30.22 in 10.0 mi SE 4.6 mph - N/A   Clear
9:50 AM 73.4 °F - 57.2 °F 57% 30.22 in 10.0 mi SSE 3.5 mph - N/A   Clear
10:10 AM 77.0 °F - 57.2 °F 50% 30.22 in 10.0 mi South 6.9 mph - N/A   Clear
10:30 AM 77.0 °F - 57.2 °F 50% 30.22 in 10.0 mi SE 5.8 mph - N/A   Clear
10:50 AM 80.6 °F 80.8 °F 57.2 °F 45% 30.22 in 10.0 mi SSE 8.1 mph - N/A   Clear
11:10 AM 80.6 °F 80.5 °F 55.4 °F 42% 30.21 in 10.0 mi SSE 6.9 mph - N/A   Clear
11:30 AM 80.6 °F 80.3 °F 53.6 °F 39% 30.21 in 10.0 mi SSE 10.4 mph - N/A   Clear
11:50 AM 82.4 °F 81.4 °F 53.6 °F 37% 30.20 in 10.0 mi SSW 10.4 mph - N/A   Partly Cloudy
12:10 PM 80.6 °F 80.3 °F 53.6 °F 39% 30.20 in 10.0 mi South 11.5 mph 16.1 mph N/A   Partly Cloudy
12:30 PM 82.4 °F 81.4 °F 53.6 °F 37% 30.20 in 10.0 mi SSE 8.1 mph - N/A   Clear
12:50 PM 82.4 °F 81.4 °F 53.6 °F 37% 30.19 in 10.0 mi South 9.2 mph - N/A   Partly Cloudy
1:10 PM 82.4 °F 81.4 °F 53.6 °F 37% 30.19 in 10.0 mi SSW 6.9 mph - N/A   Partly Cloudy
1:30 PM 84.2 °F 82.8 °F 53.6 °F 35% 30.17 in 10.0 mi SSW 10.4 mph 16.1 mph N/A   Partly Cloudy
1:50 PM 82.4 °F - 51.8 °F 35% 30.16 in 10.0 mi SE 8.1 mph - N/A   Partly Cloudy
2:10 PM 84.2 °F - 51.8 °F 33% 30.16 in 10.0 mi South 10.4 mph - N/A   Clear
2:30 PM 84.2 °F 82.8 °F 53.6 °F 35% 30.15 in 10.0 mi South 6.9 mph - N/A   Clear
2:50 PM 84.2 °F 82.8 °F 53.6 °F 35% 30.15 in 10.0 mi SSE 9.2 mph - N/A   Partly Cloudy
3:10 PM 84.2 °F 82.8 °F 53.6 °F 35% 30.14 in 10.0 mi SSE 4.6 mph - N/A   Partly Cloudy
3:30 PM 84.2 °F 82.8 °F 53.6 °F 35% 30.14 in 10.0 mi SE 4.6 mph - N/A   Clear
3:50 PM 82.4 °F 81.4 °F 53.6 °F 37% 30.14 in 10.0 mi SSE 8.1 mph - N/A   Scattered Clouds
4:10 PM 82.4 °F - 51.8 °F 35% 30.14 in 10.0 mi SSW 6.9 mph - N/A   Clear
4:30 PM 84.2 °F - 51.8 °F 33% 30.14 in 10.0 mi South 6.9 mph - N/A   Clear
4:50 PM 82.4 °F - 51.8 °F 35% 30.14 in 10.0 mi South 8.1 mph - N/A   Clear
5:10 PM 82.4 °F 81.4 °F 53.6 °F 37% 30.14 in 10.0 mi South 6.9 mph - N/A   Clear
5:30 PM 82.4 °F 81.4 °F 53.6 °F 37% 30.14 in 10.0 mi South 8.1 mph - N/A   Clear
5:50 PM 82.4 °F 81.4 °F 53.6 °F 37% 30.14 in 10.0 mi South 6.9 mph - N/A   Clear
6:10 PM 80.6 °F 80.3 °F 53.6 °F 39% 30.14 in 10.0 mi South 8.1 mph - N/A   Partly Cloudy
6:30 PM 78.8 °F - 55.4 °F 44% 30.14 in 10.0 mi South 5.8 mph - N/A   Clear
6:50 PM 77.0 °F - 55.4 °F 47% 30.14 in 10.0 mi South 4.6 mph - N/A   Clear
7:10 PM 73.4 °F - 55.4 °F 53% 30.15 in 10.0 mi Calm Calm - N/A   Clear
7:30 PM 73.4 °F - 57.2 °F 57% 30.15 in 10.0 mi Calm Calm - N/A   Clear
7:50 PM 68.0 °F - 59.0 °F 73% 30.15 in 10.0 mi Calm Calm - N/A   Clear
8:10 PM 68.0 °F - 57.2 °F 68% 30.16 in 10.0 mi Calm Calm - N/A   Clear
8:30 PM 66.2 °F - 59.0 °F 78% 30.16 in 10.0 mi Calm Calm - N/A   Clear
8:50 PM 66.2 °F - 59.0 °F 78% 30.17 in 10.0 mi Calm Calm - N/A   Clear
9:10 PM 64.4 °F - 57.2 °F 77% 30.17 in 10.0 mi Calm Calm - N/A   Clear
9:30 PM 64.4 °F - 59.0 °F 83% 30.17 in 10.0 mi Calm Calm - N/A   Clear
9:50 PM 64.4 °F - 57.2 °F 77% 30.18 in 10.0 mi Calm Calm - N/A   Clear
10:10 PM 64.4 °F - 57.2 °F 77% 30.19 in 10.0 mi Calm Calm - N/A   Scattered Clouds
10:30 PM 62.6 °F - 57.2 °F 82% 30.19 in 10.0 mi Calm Calm - N/A   Mostly Cloudy
10:50 PM 62.6 °F - 59.0 °F 88% 30.19 in 10.0 mi Calm Calm - N/A Rain Light Rain
11:30 PM 62.6 °F - 59.0 °F 88% 30.19 in 10.0 mi Calm Calm - N/A   Mostly Cloudy
11:50 PM 62.6 °F - 59.0 °F 88% 30.19 in 10.0 mi Calm Calm - N/A   Mostly Cloudy